{"data":{"norad_id":56098,"epoch":"2026-09-20T22:18:25.721568Z","epoch_age_seconds":68994,"freshness":"FRESH","line1":"1 56098U 23046F   26263.92946437  .00000422  00000+0  24880-4 0  9999","line2":"2 56098  43.0024 138.7198 0001504 264.4513  95.6167 15.27577257191884","mean_motion":15.27577257,"eccentricity":0.0001504,"inclination_deg":43.0024,"raan_deg":138.7198,"arg_perigee_deg":264.4513,"mean_anomaly_deg":95.6167,"bstar":2.488e-5,"rev_number":19188,"period_min":94.266917984103,"perigee_km":482.02538595657,"apogee_km":484.08923320489,"semimajor_km":6861.1943095807,"source":"CELESTRAK","updated_at":"2026-09-21T09:00:33.362541Z"}}